• In Czech Republic
  • List of Countries
  • For 7 days
  • Water Temperature
  • Satellite Maps
  • Weather Map
  • Weather Widgets
  • user-avatar
    Login

    Hourly Weather Carlisle

    Today, 12 December, Tuesday

    Time Temperature Precipitation Wind Pressure Humidity
    00:00 -2°C° 0 mm 2 mps 748 mmHg 93%
    01:00 -2°C° 0 mm 2 mps 748 mmHg 92%
    02:00 -2°C° 0 mm 2 mps 749 mmHg 92%
    03:00 0°C° 0 mm 1 mps 749 mmHg 92%
    04:00 0°C° 0 mm 1 mps 749 mmHg 91%
    05:00 0°C° 0 mm 1 mps 750 mmHg 91%
    06:00 0°C° 0 mm 1 mps 750 mmHg 90%
    07:00 0°C° 0 mm 1 mps 750 mmHg 90%
    08:00 -2°C° 0 mm 2 mps 750 mmHg 90%
    09:00 -2°C° 0 mm 2 mps 750 mmHg 89%
    10:00 +1°C° 0 mm 2 mps 750 mmHg 88%
    11:00 +1°C° 0 mm 3 mps 750 mmHg 86%
    12:00 +2°C° 0 mm 3 mps 750 mmHg 84%
    13:00 +1°C° 0 mm 4 mps 750 mmHg 86%
    14:00 +1°C° 0 mm 4 mps 749 mmHg 87%
    15:00 +3°C° 0 mm 4 mps 749 mmHg 88%
    16:00 +2°C° 0.4 mm 5 mps 748 mmHg 88%
    17:00 +2°C° 0.4 mm 6 mps 748 mmHg 88%
    18:00 +2°C° 0.4 mm 6 mps 747 mmHg 88%
    19:00 +3°C° 0.5 mm 6 mps 746 mmHg 90%
    20:00 +3°C° 0.5 mm 6 mps 746 mmHg 91%
    21:00 +3°C° 0.5 mm 5 mps 746 mmHg 93%
    22:00 +3°C° 0 mm 5 mps 745 mmHg 92%
    23:00 +2°C° 0 mm 5 mps 745 mmHg 91%

    Tomorrow, 13 December, Wednesday

    Time Temperature Precipitation Wind Pressure Humidity
    00:00 +3°C° 0 mm 4 mps 745 mmHg 90%
    01:00 +3°C° 0 mm 4 mps 745 mmHg 90%
    02:00 +2°C° 0 mm 5 mps 745 mmHg 89%
    03:00 +2°C° 0 mm 5 mps 745 mmHg 89%
    04:00 +2°C° 0.1 mm 5 mps 744 mmHg 89%
    05:00 +2°C° 0.1 mm 5 mps 744 mmHg 89%
    06:00 +3°C° 0.1 mm 6 mps 743 mmHg 89%
    07:00 +3°C° 0.4 mm 6 mps 742 mmHg 89%
    08:00 +3°C° 0.4 mm 7 mps 741 mmHg 89%
    09:00 +4°C° 0.4 mm 7 mps 741 mmHg 89%
    10:00 +3°C° 0.6 mm 7 mps 740 mmHg 87%
    11:00 +3°C° 0.6 mm 7 mps 740 mmHg 84%
    12:00 +3°C° 0.6 mm 7 mps 739 mmHg 82%
    13:00 +2°C° 0.4 mm 7 mps 739 mmHg 81%
    14:00 +2°C° 0.4 mm 7 mps 739 mmHg 80%
    15:00 +1°C° 0.4 mm 6 mps 739 mmHg 79%
    16:00 +1°C° 0.1 mm 6 mps 738 mmHg 79%
    17:00 -1°C° 0.1 mm 6 mps 738 mmHg 80%
    18:00 0°C° 0.1 mm 5 mps 737 mmHg 81%
    19:00 -1°C° 0.2 mm 6 mps 737 mmHg 81%
    20:00 -1°C° 0.2 mm 6 mps 737 mmHg 80%
    21:00 -1°C° 0.2 mm 6 mps 737 mmHg 80%
    22:00 -1°C° 0.1 mm 6 mps 737 mmHg 79%
    23:00 -1°C° 0.1 mm 6 mps 737 mmHg 79%

    Day after tomorrow, 14 December, Thursday

    Time Temperature Precipitation Wind Pressure Humidity
    00:00 -1°C° 0.1 mm 6 mps 737 mmHg 78%
    01:00 -1°C° 0.3 mm 6 mps 737 mmHg 80%
    02:00 -1°C° 0.3 mm 7 mps 737 mmHg 81%
    03:00 -1°C° 0.3 mm 7 mps 737 mmHg 83%
    04:00 0°C° 0.3 mm 7 mps 736 mmHg 83%
    05:00 0°C° 0.3 mm 7 mps 736 mmHg 83%
    06:00 0°C° 0.3 mm 7 mps 736 mmHg 84%
    07:00 +1°C° 0.2 mm 6 mps 736 mmHg 84%
    08:00 +1°C° 0.2 mm 6 mps 736 mmHg 84%
    09:00 +1°C° 0.2 mm 6 mps 736 mmHg 84%
    10:00 +1°C° 0 mm 6 mps 736 mmHg 84%
    11:00 +1°C° 0 mm 6 mps 735 mmHg 83%
    12:00 +2°C° 0 mm 6 mps 735 mmHg 82%
    13:00 +1°C° 0 mm 5 mps 735 mmHg 84%
    14:00 +1°C° 0 mm 5 mps 735 mmHg 85%
    15:00 +1°C° 0 mm 4 mps 735 mmHg 86%
    16:00 +1°C° 0 mm 3 mps 735 mmHg 87%
    17:00 +1°C° 0 mm 3 mps 735 mmHg 87%
    18:00 +1°C° 0 mm 2 mps 736 mmHg 88%
    19:00 0°C° 0 mm 3 mps 736 mmHg 87%
    20:00 0°C° 0 mm 3 mps 737 mmHg 86%
    21:00 0°C° 0 mm 3 mps 738 mmHg 86%
    22:00 -1°C° 0 mm 4 mps 738 mmHg 85%
    23:00 0°C° 0 mm 5 mps 738 mmHg 84%

    15 December, Friday

    Time Temperature Precipitation Wind Pressure Humidity
    00:00 -1°C° 0 mm 6 mps 739 mmHg 84%
    01:00 -1°C° 0.1 mm 6 mps 739 mmHg 84%
    02:00 -1°C° 0.1 mm 6 mps 740 mmHg 84%
    03:00 +1°C° 0.1 mm 6 mps 741 mmHg 84%
    04:00 -1°C° 0 mm 6 mps 742 mmHg 83%
    05:00 -1°C° 0 mm 6 mps 743 mmHg 83%
    06:00 -1°C° 0 mm 5 mps 744 mmHg 83%
    07:00 -1°C° 0 mm 5 mps 745 mmHg 84%
    08:00 -1°C° 0 mm 4 mps 746 mmHg 85%
    09:00 -1°C° 0 mm 4 mps 747 mmHg 86%
    10:00 0°C° 0 mm 4 mps 748 mmHg 85%
    11:00 +1°C° 0 mm 4 mps 749 mmHg 84%
    12:00 +1°C° 0 mm 4 mps 750 mmHg 83%
    13:00 +1°C° 0 mm 4 mps 750 mmHg 85%
    14:00 +1°C° 0 mm 4 mps 751 mmHg 86%
    15:00 +1°C° 0 mm 3 mps 751 mmHg 87%
    16:00 +1°C° 0 mm 3 mps 752 mmHg 88%
    17:00 0°C° 0 mm 3 mps 752 mmHg 88%
    18:00 -1°C° 0 mm 3 mps 753 mmHg 89%
    19:00 -1°C° 0 mm 3 mps 753 mmHg 88%
    20:00 -1°C° 0 mm 3 mps 754 mmHg 88%
    21:00 -1°C° 0 mm 3 mps 754 mmHg 88%
    22:00 -1°C° 0 mm 3 mps 755 mmHg 86%
    23:00 -2°C° 0 mm 3 mps 755 mmHg 85%

    16 December, Saturday

    Time Temperature Precipitation Wind Pressure Humidity
    00:00 -2°C° 0 mm 3 mps 755 mmHg 84%
    01:00 -2°C° 0 mm 3 mps 755 mmHg 84%
    02:00 -2°C° 0 mm 3 mps 756 mmHg 83%
    03:00 -2°C° 0 mm 3 mps 756 mmHg 83%
    04:00 -2°C° 0 mm 3 mps 756 mmHg 83%
    05:00 -2°C° 0 mm 3 mps 756 mmHg 83%
    06:00 -2°C° 0 mm 3 mps 757 mmHg 82%
    07:00 -2°C° 0 mm 3 mps 757 mmHg 82%
    08:00 -2°C° 0 mm 3 mps 758 mmHg 82%
    09:00 -2°C° 0 mm 2 mps 758 mmHg 82%
    10:00 -1°C° 0 mm 2 mps 758 mmHg 81%
    11:00 +1°C° 0 mm 2 mps 759 mmHg 79%
    12:00 +2°C° 0 mm 2 mps 759 mmHg 77%
    13:00 +2°C° 0 mm 2 mps 759 mmHg 80%
    14:00 +2°C° 0 mm 2 mps 759 mmHg 82%
    15:00 +2°C° 0 mm 2 mps 759 mmHg 84%
    16:00 +2°C° 0.2 mm 2 mps 760 mmHg 86%
    17:00 +3°C° 0.2 mm 1 mps 760 mmHg 88%
    18:00 +3°C° 0.2 mm 1 mps 760 mmHg 89%
    19:00 +3°C° 0.2 mm 1 mps 760 mmHg 90%
    20:00 +2°C° 0.2 mm 2 mps 761 mmHg 90%
    21:00 +2°C° 0.2 mm 2 mps 761 mmHg 91%
    22:00 +1°C° 0 mm 2 mps 761 mmHg 90%
    23:00 +1°C° 0 mm 1 mps 762 mmHg 90%

    17 December, Sunday

    Time Temperature Precipitation Wind Pressure Humidity
    00:00 +1°C° 0 mm 1 mps 762 mmHg 90%
    01:00 +1°C° 0 mm 1 mps 762 mmHg 89%
    02:00 0°C° 0 mm 1 mps 762 mmHg 88%
    03:00 0°C° 0 mm 1 mps 762 mmHg 87%
    04:00 0°C° 0 mm 1 mps 762 mmHg 86%
    05:00 -1°C° 0 mm 1 mps 762 mmHg 86%
    06:00 -1°C° 0 mm 1 mps 762 mmHg 85%
    07:00 -1°C° 0 mm 1 mps 762 mmHg 84%
    08:00 -1°C° 0 mm 1 mps 763 mmHg 83%
    09:00 -1°C° 0 mm 1 mps 763 mmHg 82%
    10:00 0°C° 0 mm 1 mps 763 mmHg 82%
    11:00 +1°C° 0 mm 1 mps 763 mmHg 81%
    12:00 +2°C° 0 mm 1 mps 762 mmHg 80%
    13:00 +2°C° 0 mm 1 mps 762 mmHg 83%
    14:00 +1°C° 0 mm 2 mps 762 mmHg 85%
    15:00 +1°C° 0 mm 2 mps 761 mmHg 87%
    16:00 0°C° 0 mm 3 mps 761 mmHg 88%
    17:00 +1°C° 0 mm 3 mps 760 mmHg 90%
    18:00 +1°C° 0 mm 3 mps 760 mmHg 91%
    19:00 +1°C° 0.3 mm 4 mps 759 mmHg 92%
    20:00 +2°C° 0.3 mm 5 mps 759 mmHg 93%
    21:00 +3°C° 0.3 mm 5 mps 758 mmHg 95%
    22:00 +3°C° 1.1 mm 5 mps 758 mmHg 95%
    23:00 +5°C° 1.1 mm 5 mps 757 mmHg 96%
    Show more